Weather in Komsomolsk

Russia / Tomsk District     57°24′31″N   86°01′15″E
temp.,
°C
wind,
m/s
gust,
m/s
humid.,
%
clouds,
%
prec.,
mm/h
press.,
hPa
HPBL,
m
16 may, sun
sun1601:00+7ne1194100 3.4 101616
04:00+6ne2498100 0.0 101693
07:00+7ene2588100 0.0 1016218
10:00+8ese3584100 0.5 1015349
13:00+7e3693100 4.4 1014326
16:00+6ene3794100 1.9 1014341
19:00+7ne2590100 2.1 1013278
22:00+7n1491100 0.0 1014124
17 may, mon
mon1701:00+6nne248752 0.0 1015106
04:00+5ne1282100 0.0 101647
07:00+6ne1276100 0.0 1017118
10:00+8se1160100 0.0 1017337
13:00+11ssw2249100 0.0 1017892
16:00+13wsw1353100 0.0 10161275
19:00+12nnw2468100 0.0 1015497
22:00+8e2495100 1.1 1013114
18 may, tue
tue1801:00+8ese2497100 1.8 1011135
04:00+9ese2794100 0.9 1008218
07:00+9ese2597100 1.4 1006161
10:00+8ene3796100 0.1 1005289
13:00+8ne3795100 0.4 1006408
16:00+8ne3791100 0.1 1006537
19:00+7nne2695100 1.1 1008360
22:00+6nnw2495100 0.1 1009112
19 may, wed
wed1901:00+5ne3118595 0.1 1009298
04:00+2ne3118169 0.0 1010235
07:00+3nne4117490 0.0 1011387
10:00+7nne5842100 0.0 10111201
13:00+10nne572987 0.0 10102010
16:00+10n7927100 0.0 10102462
19:00+10n573654 0.0 10112753
22:00+5n41053100 0.0 1012543
20 may, thu
thu2001:00+3n4115893 0.0 1012535
04:00+2nnw4105793 0.0 1013541
07:00+2nnw410574 0.0 1015591
10:00+6nnw574288 0.0 10152120
13:00+7n61044100 0.0 10152082
16:00+7nne4865100 0.6 10161219
19:00+8ene366380 1.1 10181142
22:00+3sw118478 0.0 101910